Lid_Strength_Index
3 4 4 4 4 5 10 11 12 8 10 14 16 16 12 10 10 9 10 10 11 11 10 11 11 12 9 7 7 10 10 12 14 12 10 9 11 13 13 15 15 16 15 14
3 3 3 4 4 5 9 12 11 7 10 15 16 15 12 10 11 10 11 11 9 10 11 12 10 9 7 7 8 9 10 13 15 13 12 11 11 11 13 14 15 16 16 14
3 3 3 3 4 4 8 10 10 11 11 14 14 15 14 11 7 9 9 10 10 11 11 10 11 10 7 7 7 6 7 13 13 14 13 11 12 11 11 14 15 15 15 13
3 2 2 2 3 4 7 8 10 10 13 13 13 14 13 12 11 8 9 11 10 11 14 11 11 9 8 7 6 9 10 12 13 12 11 10 11 10 10 12 13 14 13 12
3 2 2 2 3 4 7 9 11 10 12 11 12 12 14 12 10 10 9 11 8 9 11 10 11 10 10 11 8 11 11 13 13 13 9 9 10 10 9 10 11 11 11 12
3 2 2 2 4 6 9 8 8 10 11 12 13 13 13 10 9 8 7 7 9 9 8 7 8 9 10 9 9 10 10 13 14 15 11 11 14 10 11 11 11 12 13 11
3 2 2 2 3 4 9 9 9 11 11 11 11 10 10 10 9 8 6 7 9 7 6 7 8 10 11 9 10 9 10 11 12 14 13 17 11 9 9 11 10 10 10 9
3 3 2 2 2 3 9 9 9 11 13 10 10 10 11 9 9 8 7 7 7 8 8 10 12 11 12 11 10 10 10 11 13 14 15 12 11 10 10 11 12 9 10 9
2 2 3 2 2 3 8 8 8 10 11 11 9 10 10 12 12 10 8 6 8 8 10 11 14 15 13 13 11 11 11 12 12 14 16 16 11 8 7 8 13 8 8 8
2 2 2 2 2 3 7 8 8 9 11 10 10 11 11 11 11 12 9 8 7 8 11 12 13 13 10 13 13 13 15 14 14 14 15 12 9 7 7 13 11 8 7 7
2 2 2 3 2 2 5 8 7 8 11 10 8 8 10 11 11 12 11 9 8 9 12 12 13 14 12 13 12 13 13 14 15 14 15 15 8 9 11 9 9 7 7 7
2 2 3 3 3 3 4 10 7 7 9 9 7 7 7 8 9 11 10 9 10 8 10 11 11 12 11 13 14 10 13 13 13 12 12 9 8 9 8 7 7 7 7 6
2 2 3 3 3 3 4 9 9 8 9 9 8 8 8 8 8 9 11 10 9 10 8 8 10 12 10 13 12 11 10 9 12 12 10 9 8 6 6 6 7 6 5 5
2 2 3 3 3 3 3 8 8 9 9 11 8 4 6 5 8 9 9 9 9 8 8 9 10 11 10 13 12 11 9 9 11 11 9 8 7 6 6 5 5 5 5 4
2 2 2 3 3 3 4 7 7 6 8 11 10 7 6 6 6 7 9 9 10 9 10 11 11 11 11 11 10 11 9 10 12 12 8 9 8 6 5 6 6 5 5 5
2 2 3 3 3 3 8 7 6 5 7 9 11 7 7 6 7 7 8 8 8 9 10 11 11 10 10 12 12 8 8 7 7 8 7 6 6 5 4 5 5 4 4 4
2 2 2 3 3 7 9 7 5 4 6 8 10 10 7 7 8 8 8 9 9 9 10 11 11 11 10 11 12 8 7 7 7 6 6 7 6 6 5 4 4 4 4 4
2 2 2 2 3 4 6 5 3 4 7 7 10 11 8 6 9 9 9 9 9 9 10 10 11 10 10 12 9 9 7 7 7 7 7 6 5 5 5 4 4 5 5 5
2 2 2 6 7 8 5 -0 1 5 6 9 9 12 12 6 8 9 8 9 10 9 10 11 9 11 13 11 9 9 8 6 6 6 6 6 6 6 5 5 5 7 6 5
2 6 7 8 6 1 2 5 6 7 7 8 9 9 10 8 9 9 9 9 11 12 10 10 11 11 10 7 6 7 6 5 7 7 8 7 7 6 6 6 5 5 5 4
8 8 6 5 3 5 6 9 9 8 10 8 8 9 10 7 9 10 8 10 10 13 10 11 12 12 9 7 7 6 5 5 6 6 6 6 6 5 5 5 5 5 4 4
7 7 6 7 6 8 10 10 9 9 10 8 9 9 9 7 6 9 8 11 10 13 9 11 13 10 8 7 6 6 6 6 5 5 5 5 4 4 5 5 5 5 5 4
7 7 9 8 9 14 12 13 11 11 9 7 7 9 8 7 6 8 9 11 12 8 12 13 11 8 7 7 6 5 5 5 5 5 5 5 5 4 4 4 3 3 4 4
7 7 13 11 13 10 9 10 10 7 7 7 7 8 8 8 9 9 12 10 10 13 15 14 9 8 7 6 6 6 6 6 6 6 5 5 4 5 4 4 3 3 4 3
7 6 11 10 8 8 7 7 7 6 6 7 8 8 9 9 10 10 10 12 13 13 13 10 7 6 7 7 6 7 7 7 6 5 5 5 4 4 4 4 3 3 3 4
7 8 9 7 8 8 8 7 7 5 6 7 8 8 10 11 10 12 12 13 14 12 9 8 8 8 7 7 7 7 6 6 6 6 5 4 4 4 5 4 4 4 3 4
7 9 7 8 8 8 7 7 6 5 7 9 8 11 12 9 12 12 10 12 10 8 7 7 8 8 8 8 7 6 6 6 6 5 4 3 3 3 4 5 5 5 5 3